VK6CV Weather Reports


time (UTC)temp
C
wind
direction
speed
KPH
gust
KPH
rain 1hr
cm
rain 24hr
cm
rain mn
cm
humidity
%
barometer
mb
20260506134553 17 107 6.4 14.5 0.00 0.00 0.00 55 1029.2
20260506134052 17 117 4.8 12.9 0.00 0.00 0.00 54 1029.2
20260506133552 17 119 4.8 12.9 0.00 0.00 0.00 54 1029.2
20260506133102 17 120 6.4 16.1 0.00 0.00 0.00 54 1029.2
20260506132552 17 126 8.0 16.1 0.00 0.00 0.00 54 1029.1
20260506132053 17 129 6.4 17.7 0.00 0.00 0.00 54 1029.2
20260506131556 17 111 6.4 17.7 0.00 0.00 0.00 54 1029.1
20260506131053 17 93 4.8 14.5 0.00 0.00 0.00 54 1029.1
20260506130553 17 116 4.8 17.7 0.00 0.00 0.00 54 1029.1
20260506130054 17 117 8.0 19.3 0.00 0.00 0.00 53 1028.9
20260506125552 17 127 9.7 20.9 0.00 0.00 0.00 53 1029.0
20260506125052 17 114 9.7 20.9 0.00 0.00 0.00 54 1029.0
20260506124558 17 101 8.0 17.7 0.00 0.00 0.00 54 1029.0
20260506124053 17 107 4.8 14.5 0.00 0.00 0.00 55 1028.9
20260506123553 17 114 4.8 16.1 0.00 0.00 0.00 55 1028.9
20260506123052 17 111 6.4 16.1 0.00 0.00 0.00 56 1028.8
20260506122553 17 119 6.4 14.5 0.00 0.00 0.00 57 1028.8
20260506122052 17 97 6.4 14.5 0.00 0.00 0.00 59 1028.8
20260506121558 17 103 3.2 11.3 0.00 0.00 0.00 61 1028.8
20260506121052 17 137 3.2 11.3 0.00 0.00 0.00 61 1028.9
20260506120553 17 137 3.2 6.4 0.00 0.00 0.00 62 1028.8
20260506120110 17 137 3.2 6.4 0.00 0.00 0.00 62 1028.7
20260506115552 17 137 1.6 4.8 0.00 0.00 0.00 62 1028.6
20260506115051 17 137 1.6 4.8 0.00 0.00 0.00 62 1028.7
20260506114612 17 138 1.6 4.8 0.00 0.00 0.00 61 1028.6
20260506114052 17 138 1.6 4.8 0.00 0.00 0.00 61 1028.5
20260506113552 17 138 1.6 6.4 0.00 0.00 0.00 61 1028.5
20260506113058 17 138 1.6 6.4 0.00 0.00 0.00 61 1028.6
20260506112553 17 138 1.6 4.8 0.00 0.00 0.00 60 1028.4
20260506112052 17 138 1.6 4.8 0.00 0.00 0.00 60 1028.5
20260506111558 17 138 1.6 6.4 0.00 0.00 0.00 60 1028.4
20260506111052 17 138 3.2 6.4 0.00 0.00 0.00 59 1028.4
20260506110553 18 138 1.6 6.4 0.00 0.00 0.00 59 1028.3
20260506110059 18 138 1.6 6.4 0.00 0.00 0.00 58 1028.4
20260506105556 18 138 1.6 8.0 0.00 0.00 0.00 58 1028.3
20260506105052 18 138 3.2 8.0 0.00 0.00 0.00 58 1028.3
20260506104553 18 138 3.2 8.0 0.00 0.00 0.00 58 1028.3
20260506104109 18 138 3.2 8.0 0.00 0.00 0.00 57 1028.3
20260506103552 18 138 3.2 8.0 0.00 0.00 0.00 57 1028.3
20260506103053 18 138 4.8 11.3 0.00 0.00 0.00 57 1028.2
20260506102553 18 139 3.2 11.3 0.00 0.00 0.00 56 1028.2
20260506102052 18 138 4.8 11.3 0.00 0.00 0.00 56 1028.2
20260506101552 18 139 3.2 11.3 0.00 0.00 0.00 56 1028.1
20260506101053 18 139 3.2 8.0 0.00 0.00 0.00 55 1028.0
20260506100552 19 138 1.6 11.3 0.00 0.00 0.00 55 1027.9
20260506100050 19 138 4.8 11.3 0.00 0.00 0.00 55 1028.0
20260506095552 19 138 4.8 11.3 0.00 0.00 0.00 55 1027.9
20260506095053 19 138 3.2 8.0 0.00 0.00 0.00 54 1027.8
20260506094557 19 137 3.2 12.9 0.00 0.00 0.00 54 1027.7
20260506094052 20 137 3.2 14.5 0.00 0.00 0.00 53 1027.6
20260506093552 20 137 6.4 14.5 0.00 0.00 0.00 53 1027.6
20260506093109 20 143 4.8 11.3 0.00 0.00 0.00 53 1027.6
20260506092552 20 143 3.2 12.9 0.00 0.00 0.00 53 1027.6
20260506092052 20 143 4.8 12.9 0.00 0.00 0.00 53 1027.5
20260506091553 20 143 1.6 12.9 0.00 0.00 0.00 53 1027.4
20260506091052 20 143 4.8 12.9 0.00 0.00 0.00 53 1027.4
20260506090552 20 144 4.8 14.5 0.00 0.00 0.00 53 1027.4
20260506090058 20 127 3.2 16.1 0.00 0.00 0.00 53 1027.3
20260506085552 20 129 4.8 16.1 0.00 0.00 0.00 53 1027.4
20260506085052 20 123 4.8 16.1 0.00 0.00 0.00 53 1027.3
20260506084554 20 135 4.8 11.3 0.00 0.00 0.00 53 1027.3
20260506084053 20 140 4.8 17.7 0.00 0.00 0.00 52 1027.3
20260506083553 20 138 6.4 17.7 0.00 0.00 0.00 52 1027.4
20260506083053 21 130 9.7 17.7 0.00 0.00 0.00 51 1027.3
20260506082556 21 134 8.0 20.9 0.00 0.00 0.00 51 1027.3
20260506082052 21 126 8.0 20.9 0.00 0.00 0.00 51 1027.3
20260506081551 21 145 11.3 20.9 0.00 0.00 0.00 51 1027.3
20260506081052 21 137 8.0 19.3 0.00 0.00 0.00 51 1027.3
20260506080552 21 129 9.7 19.3 0.00 0.00 0.00 51 1027.3
20260506080104 21 133 9.7 20.9 0.00 0.00 0.00 51 1027.2
20260506073103 21 131 8.0 16.1 0.00 0.00 0.00 51 1027.2
20260506072556 21 134 8.0 17.7 0.00 0.00 0.00 51 1027.2
20260506072056 21 121 8.0 17.7 0.00 0.00 0.00 51 1027.2
20260506071552 21 134 6.4 16.1 0.00 0.00 0.00 51 1027.1
20260506071052 21 126 8.0 17.7 0.00 0.00 0.00 50 1027.1
20260506070552 21 109 6.4 22.5 0.00 0.00 0.00 49 1027.1
20260506062052 22 105 8.0 14.5 0.00 0.00 0.00 49 1027.1
20260506061601 22 101 8.0 16.1 0.00 0.00 0.00 50 1027.1
20260506061052 22 55 6.4 16.1 0.00 0.00 0.00 49 1027.1
20260506060553 22 128 8.0 16.1 0.00 0.00 0.00 49 1027.1
20260506051052 21 46 6.4 17.7 0.00 0.00 0.00 52 1027.4
20260506050552 21 92 8.0 17.7 0.00 0.00 0.00 52 1027.4
20260506045053 21 103 8.0 19.3 0.00 0.00 0.00 52 1027.6
20260506044601 21 113 9.7 19.3 0.00 0.00 0.00 53 1027.7
20260506044052 21 96 9.7 20.9 0.00 0.00 0.00 53 1027.7
20260506043556 21 58 9.7 20.9 0.00 0.00 0.00 52 1027.8
20260506043103 21 45 6.4 17.7 0.00 0.00 0.00 53 1027.8
20260506042553 21 15 8.0 17.7 0.00 0.00 0.00 53 1027.9
20260506042053 21 94 8.0 17.7 0.00 0.00 0.00 53 1028.0
20260506041607 20 107 8.0 17.7 0.00 0.00 0.00 55 1028.1
20260506041054 20 88 8.0 20.9 0.00 0.00 0.00 55 1028.2
20260506040552 20 112 9.7 20.9 0.00 0.00 0.00 55 1028.2
20260506035552 20 123 12.9 19.3 0.00 0.00 0.00 56 1028.3
20260506035052 20 92 6.4 17.7 0.00 0.00 0.00 56 1028.3
20260506034602 20 42 9.7 19.3 0.00 0.00 0.00 57 1028.4
20260506034051 20 42 8.0 20.9 0.00 0.00 0.00 58 1028.4
20260506033552 19 30 9.7 20.9 0.00 0.00 0.00 57 1028.5
20260506033104 19 38 8.0 20.9 0.00 0.00 0.00 58 1028.6
20260506032553 19 90 8.0 17.7 0.00 0.00 0.00 58 1028.7
20260506032054 19 48 6.4 19.3 0.00 0.00 0.00 59 1028.6
20260506031603 19 87 11.3 19.3 0.00 0.00 0.00 59 1028.8
20260506031053 18 124 9.7 17.7 0.00 0.00 0.00 59 1028.9
20260506030552 18 117 9.7 17.7 0.00 0.00 0.00 60 1028.9
20260506030109 18 352 9.7 24.1 0.00 0.00 0.00 60 1028.8
20260506025554 18 102 9.7 25.7 0.00 0.00 0.00 61 1028.8
20260506025052 18 91 14.5 25.7 0.00 0.00 0.00 61 1028.9
20260506024613 18 92 11.3 20.9 0.00 0.00 0.00 60 1028.9
20260506024053 18 54 9.7 19.3 0.00 0.00 0.00 61 1029.1
20260506023552 18 59 8.0 19.3 0.00 0.00 0.00 62 1029.0
20260506023105 17 61 9.7 20.9 0.00 0.00 0.00 62 1029.0
20260506022553 17 44 9.7 20.9 0.00 0.00 0.00 63 1029.1
20260506022052 17 30 11.3 20.9 0.00 0.00 0.00 63 1029.1
20260506021556 17 11 11.3 20.9 0.00 0.00 0.00 64 1029.1
20260506021055 17 57 9.7 20.9 0.00 0.00 0.00 64 1029.2
20260506020552 17 69 11.3 20.9 0.00 0.00 0.00 64 1029.2
20260506020119 17 46 6.4 16.1 0.00 0.00 0.00 64 1029.2
20260506015553 17 13 8.0 16.1 0.00 0.00 0.00 64 1029.2
20260506015053 17 56 8.0 16.1 0.00 0.00 0.00 64 1029.2
20260506014553 16 98 6.4 14.5 0.00 0.00 0.00 65 1029.3
20260506014054 16 39 8.0 14.5 0.00 0.00 0.00 65 1029.3
20260506013552 16 47 8.0 14.5 0.00 0.00 0.00 65 1029.3
20260506013052 17 11 4.8 16.1 0.00 0.00 0.00 66 1029.3
20260506012552 16 11 4.8 16.1 0.00 0.00 0.00 65 1029.3
20260506012053 16 95 6.4 17.7 0.00 0.00 0.00 66 1029.4
20260506011600 16 130 3.2 19.3 0.00 0.00 0.00 67 1029.4
20260506011055 16 95 9.7 19.3 0.00 0.00 0.00 67 1029.3
20260506010552 16 86 8.0 19.3 0.00 0.00 0.00 68 1029.3
20260506010058 16 88 9.7 19.3 0.00 0.00 0.00 68 1029.2
20260506005549 16 73 6.4 14.5 0.00 0.00 0.00 68 1029.1
20260506005051 15 59 6.4 14.5 0.00 0.00 0.00 68 1029.2
20260506004553 15 107 6.4 16.1 0.00 0.00 0.00 69 1029.1
20260506004052 15 65 6.4 16.1 0.00 0.00 0.00 69 1029.1
20260506003553 15 120 4.8 9.7 0.00 0.00 0.00 70 1029.1
20260506003058 15 123 4.8 12.9 0.00 0.00 0.00 70 1029.2
20260506002553 15 123 3.2 12.9 0.00 0.00 0.00 70 1029.0
20260506002052 15 123 4.8 11.3 0.00 0.00 0.00 71 1028.9
20260506001606 15 123 4.8 9.7 0.00 0.00 0.00 72 1028.9
20260506001053 15 123 3.2 9.7 0.00 0.00 0.00 72 1028.9
20260506000555 14 123 3.2 6.4 0.00 0.00 0.00 73 1028.7
20260506000122 14 123 3.2 6.4 0.00 0.00 0.00 73 1028.8
20260505235552 14 123 1.6 6.4 0.00 0.00 0.00 74 1028.8
20260505235052 13 123 3.2 6.4 0.00 0.00 0.00 75 1028.6
20260505234552 13 123 1.6 6.4 0.00 0.00 0.00 76 1028.6
20260505234055 13 0 0.0 4.8 0.00 0.00 0.00 77 1028.6
20260505233553 13 0 0.0 4.8 0.00 0.00 0.00 77 1028.6
20260505233055 12 123 0.0 3.2 0.00 0.00 0.00 78 1028.4
20260505232553 12 0 0.0 1.6 0.00 0.00 0.00 79 1028.2
20260505232052 12 0 0.0 1.6 0.00 0.00 0.00 80 1028.2
20260505231557 12 0 0.0 1.6 0.00 0.00 0.00 79 1028.2
20260505231052 12 0 0.0 3.2 0.00 0.00 0.00 79 1028.1
20260505230552 12 0 0.0 3.2 0.00 0.00 0.00 79 1028.1
20260505230055 12 0 0.0 4.8 0.00 0.00 0.00 79 1027.9
20260505225554 12 0 0.0 4.8 0.00 0.00 0.00 79 1028.0
20260505225052 12 124 0.0 6.4 0.00 0.00 0.00 79 1028.0
20260505224558 12 0 0.0 6.4 0.00 0.00 0.00 79 1027.7
20260505224057 12 124 0.0 4.8 0.00 0.00 0.00 79 1027.7
20260505223552 12 124 1.6 4.8 0.00 0.00 0.00 79 1027.8
20260505223056 12 124 0.0 3.2 0.00 0.00 0.00 78 1027.7
20260505222552 12 0 0.0 3.2 0.00 0.00 0.00 78 1027.5
20260505222052 12 0 0.0 4.8 0.00 0.00 0.00 77 1027.5
20260505221600 12 0 1.6 9.7 0.00 0.00 0.00 77 1027.4
20260505221053 12 0 0.0 9.7 0.00 0.00 0.00 77 1027.3
20260505220552 12 0 1.6 9.7 0.00 0.00 0.00 78 1027.3
20260505220106 12 0 3.2 6.4 0.00 0.00 0.00 78 1027.4
20260505215553 12 124 1.6 6.4 0.00 0.00 0.00 78 1027.4
20260505215052 12 124 1.6 4.8 0.00 0.00 0.00 78 1027.2
20260505214605 12 124 1.6 6.4 0.00 0.00 0.00 78 1027.2
20260505214052 12 124 3.2 6.4 0.00 0.00 0.00 78 1027.2
20260505213552 12 124 1.6 4.8 0.00 0.00 0.00 77 1027.1
20260505213051 12 124 1.6 9.7 0.00 0.00 0.00 77 1027.3
20260505212552 12 124 1.6 9.7 0.00 0.00 0.00 76 1027.2
20260505212053 12 124 3.2 8.0 0.00 0.00 0.00 76 1027.1
20260505211629 12 124 1.6 6.4 0.00 0.00 0.00 76 1027.0
20260505211056 12 124 1.6 6.4 0.00 0.00 0.00 75 1027.1
20260505210552 13 0 0.0 0.0 0.00 0.00 0.00 75 1027.0
20260505210053 13 0 0.0 4.8 0.00 0.00 0.00 75 1026.9
20260505205552 13 0 0.0 4.8 0.00 0.00 0.00 75 1026.8
20260505205051 13 0 0.0 4.8 0.00 0.00 0.00 75 1026.7
20260505204604 13 0 0.0 4.8 0.00 0.00 0.00 75 1026.9
20260505204052 13 0 1.6 4.8 0.00 0.00 0.00 74 1026.8
20260505203551 13 124 0.0 9.7 0.00 0.00 0.00 74 1026.8
20260505203056 13 124 0.0 9.7 0.00 0.00 0.00 75 1026.8
20260505202553 13 124 3.2 6.4 0.00 0.00 0.00 75 1026.8
20260505202053 13 124 1.6 6.4 0.00 0.00 0.00 74 1026.8
20260505201557 13 125 1.6 12.9 0.00 0.00 0.00 74 1026.7
20260505201052 13 125 3.2 12.9 0.00 0.00 0.00 74 1026.8
20260505200554 13 125 3.2 9.7 0.00 0.00 0.00 74 1026.8
20260505200054 13 125 1.6 9.7 0.00 0.00 0.00 74 1026.7
20260505195552 13 0 3.2 8.0 0.00 0.00 0.00 74 1026.8
20260505195055 13 125 3.2 6.4 0.00 0.00 0.00 73 1026.7
20260505194558 13 0 1.6 4.8 0.00 0.00 0.00 73 1026.8
20260505194053 13 0 0.0 3.2 0.00 0.00 0.00 72 1026.8
20260505193552 13 0 0.0 6.4 0.00 0.00 0.00 72 1026.8
20260505193055 13 0 0.0 6.4 0.00 0.00 0.00 71 1026.6
20260505192554 13 125 1.6 6.4 0.00 0.00 0.00 71 1026.7
20260505192052 13 126 1.6 6.4 0.00 0.00 0.00 71 1026.7
20260505191555 13 126 1.6 8.0 0.00 0.00 0.00 70 1026.6
20260505191051 14 127 1.6 8.0 0.00 0.00 0.00 70 1026.7
20260505190554 14 129 3.2 8.0 0.00 0.00 0.00 69 1026.6
20260505190103 14 130 3.2 11.3 0.00 0.00 0.00 69 1026.4
20260505185551 14 131 3.2 11.3 0.00 0.00 0.00 69 1026.5
20260505185052 14 132 4.8 11.3 0.00 0.00 0.00 69 1026.4
20260505184557 14 133 3.2 11.3 0.00 0.00 0.00 68 1026.4
20260505184053 15 134 3.2 11.3 0.00 0.00 0.00 67 1026.6
20260505183553 15 133 3.2 8.0 0.00 0.00 0.00 68 1026.6
20260505183052 15 133 4.8 8.0 0.00 0.00 0.00 67 1026.6
20260505182553 15 134 1.6 6.4 0.00 0.00 0.00 67 1026.5
20260505182053 15 135 3.2 8.0 0.00 0.00 0.00 67 1026.4
20260505181627 15 135 3.2 11.3 0.00 0.00 0.00 67 1026.5
20260505181055 15 135 1.6 11.3 0.00 0.00 0.00 66 1026.5
20260505180552 15 134 1.6 8.0 0.00 0.00 0.00 66 1026.5
20260505180105 15 135 3.2 11.3 0.00 0.00 0.00 66 1026.5
20260505175553 15 136 3.2 11.3 0.00 0.00 0.00 65 1026.4
20260505175052 15 136 4.8 11.3 0.00 0.00 0.00 65 1026.3
20260505174552 15 136 3.2 8.0 0.00 0.00 0.00 65 1026.5
20260505174051 15 135 3.2 12.9 0.00 0.00 0.00 65 1026.4
20260505173552 15 132 1.6 12.9 0.00 0.00 0.00 64 1026.4
20260505173052 15 130 4.8 12.9 0.00 0.00 0.00 64 1026.3
20260505172552 15 130 4.8 14.5 0.00 0.00 0.00 64 1026.3
20260505172051 15 131 4.8 14.5 0.00 0.00 0.00 64 1026.3
20260505171558 15 131 3.2 14.5 0.00 0.00 0.00 64 1026.2
20260505171053 16 131 4.8 16.1 0.00 0.00 0.00 64 1026.2
20260505170552 15 133 4.8 20.9 0.00 0.00 0.00 64 1026.2
20260505170052 15 122 8.0 20.9 0.00 0.00 0.00 65 1026.2
20260505165552 15 128 4.8 11.3 0.00 0.00 0.00 65 1026.1
20260505165052 15 130 4.8 11.3 0.00 0.00 0.00 65 1026.3
20260505164553 15 131 3.2 11.3 0.00 0.00 0.00 66 1026.2
20260505164052 15 131 3.2 11.3 0.00 0.00 0.00 65 1026.2
20260505163555 15 130 3.2 11.3 0.00 0.00 0.00 65 1026.2
20260505163054 15 129 3.2 11.3 0.00 0.00 0.00 65 1026.1
20260505162551 15 129 4.8 12.9 0.00 0.00 0.00 65 1026.1
20260505162051 15 129 4.8 14.5 0.00 0.00 0.00 64 1026.1
20260505161554 15 128 4.8 14.5 0.00 0.00 0.00 64 1026.0
20260505161052 15 130 4.8 12.9 0.00 0.00 0.00 64 1026.0
20260505160552 15 130 4.8 12.9 0.00 0.00 0.00 64 1026.0
20260505153057 14 184 1.6 6.4 0.00 0.00 0.00 70 1026.1
20260505152552 14 184 1.6 9.7 0.00 0.00 0.00 71 1026.1
20260505152050 14 184 3.2 9.7 0.00 0.00 0.00 72 1026.1
20260505151602 14 182 4.8 9.7 0.00 0.00 0.00 73 1026.1
20260505151057 13 189 3.2 9.7 0.00 0.00 0.00 74 1026.0
20260505150552 13 198 1.6 6.4 0.00 0.00 0.00 74 1026.0
20260505140552 15 0 0.0 8.0 0.00 0.00 0.00 75 1026.2